Weather History for Tallahassee, FL

Change the Weather History Date:

Friday, December 21, 2012

  Actual Average Record
Temperature  
Mean Temperature 44 °F 52 °F  
Max Temperature 56 °F 64 °F 80 °F (1967)
Min Temperature 32 °F 40 °F 15 °F (1981)
Degree Days  
Heating Degree Days 21    
Month to date heating degree days 116  
Since 1 July heating degree days 374  
Cooling Degree Days 0    
Month to date cooling degree days 18  
Year to date cooling degree days 2976  
Moisture  
Dew Point 21 °F    
Average Humidity 37    
Maximum Humidity 58    
Minimum Humidity 15    
Precipitation  
Precipitation 0.00 in 0.12 in 3.05 in (1972)
Month to date precipitation 2.11 2.66  
Year to date precipitation 58.15 57.99  
Sea Level Pressure  
Sea Level Pressure 30.17 in    
Wind  
Wind Speed 12 mph (WNW)    
Max Wind Speed 22 mph    
Max Gust Speed 29 mph    
Visibility 10 miles    
Events      
T = Trace of Precipitation, MM = Missing Value Source: NWS Daily Summary

Daily Weather History Graph

Daily Weather History Graph

Search for Another Location

Airport:

Trip Planner

Search our weather history database for the weather conditions in past years. The results will help you decide how hot, cold, wet, or windy it might be!

Date:

Astronomy

Dec. 21, 2012 Rise Set
Actual Time 7:30 AM EST 5:41 PM EST
Civil Twilight 7:03 AM EST 6:07 PM EST
Nautical Twilight 6:33 AM EST 6:37 PM EST
Astronomical Twilight 6:04 AM EST 7:07 PM EST
Moon 1:12 PM EST 1:33 AM EST
Length of Visible Light 11h 04m
Length of Day
10h 11m
Waxing Gibbous, 64% of the Moon is Illuminated
Dec 21
Waxing Gibbous
Dec 28
Full
Jan 4
Last Quarter
Jan 11
New
Jan 18
First Quarter

Hourly Weather History & Observations

Time (EST) Temp. Windchill Dew Point Humidity Pressure Visibility Wind Dir Wind Speed Gust Speed Precip Events Conditions
12:53 AM 48.9 °F - 30.0 °F 48% 30.08 in 10.0 mi NW 12.7 mph 20.7 mph N/A   Clear
1:53 AM 48.0 °F - 30.9 °F 52% 30.09 in 10.0 mi WNW 10.4 mph - N/A   Clear
2:53 AM 46.9 °F - 30.0 °F 52% 30.09 in 10.0 mi WNW 16.1 mph 20.7 mph N/A   Clear
3:53 AM 45.0 °F 37.6 °F 30.0 °F 56% 30.10 in 10.0 mi WNW 17.3 mph 24.2 mph N/A   Clear
4:53 AM 44.1 °F 38.1 °F 26.1 °F 49% 30.11 in 10.0 mi WNW 11.5 mph - N/A   Clear
5:53 AM 43.0 °F 37.2 °F 25.0 °F 49% 30.14 in 10.0 mi WNW 10.4 mph - N/A   Clear
6:53 AM 42.1 °F 35.2 °F 24.1 °F 49% 30.15 in 10.0 mi WNW 12.7 mph - N/A   Clear
7:53 AM 41.0 °F 33.9 °F 23.0 °F 49% 30.17 in 10.0 mi WNW 12.7 mph - N/A   Clear
8:53 AM 43.0 °F 36.0 °F 21.9 °F 43% 30.20 in 10.0 mi WNW 13.8 mph - N/A   Clear
9:53 AM 46.0 °F 39.6 °F 21.0 °F 37% 30.22 in 10.0 mi WNW 15.0 mph - N/A   Clear
10:53 AM 48.9 °F - 18.0 °F 29% 30.22 in 10.0 mi WNW 12.7 mph 23.0 mph N/A   Clear
11:53 AM 51.1 °F - 17.1 °F 26% 30.20 in 10.0 mi WNW 17.3 mph 24.2 mph N/A   Clear
12:53 PM 53.1 °F - 16.0 °F 23% 30.17 in 10.0 mi WNW 18.4 mph 25.3 mph N/A   Clear
1:53 PM 54.0 °F - 14.0 °F 21% 30.16 in 10.0 mi WNW 16.1 mph 24.2 mph N/A   Clear
2:53 PM 55.9 °F - 10.9 °F 17% 30.15 in 10.0 mi WNW 19.6 mph 25.3 mph N/A   Clear
3:53 PM 55.9 °F - 9.0 °F 15% 30.14 in 10.0 mi NW 13.8 mph 24.2 mph N/A   Clear
4:53 PM 54.0 °F - 10.0 °F 17% 30.15 in 10.0 mi WNW 11.5 mph - N/A   Clear
5:53 PM 48.9 °F - 17.1 °F 28% 30.18 in 10.0 mi WNW 5.8 mph - N/A   Clear
6:53 PM 45.0 °F 41.8 °F 19.0 °F 36% 30.21 in 10.0 mi WNW 5.8 mph - N/A   Clear
7:53 PM 41.0 °F 37.1 °F 19.9 °F 43% 30.22 in 10.0 mi West 5.8 mph - N/A   Clear
8:53 PM 44.1 °F 39.5 °F 19.0 °F 37% 30.25 in 10.0 mi West 8.1 mph - N/A   Clear
9:53 PM 41.0 °F 38.0 °F 19.0 °F 41% 30.26 in 10.0 mi West 4.6 mph - N/A   Clear
10:53 PM 36.0 °F 32.1 °F 21.0 °F 55% 30.27 in 10.0 mi West 4.6 mph - N/A   Clear
11:53 PM 33.1 °F 28.7 °F 21.0 °F 61% 30.27 in 10.0 mi West 4.6 mph - N/A   Clear